Back to catalog

STARLINK-32880

AliveCommunicationsVLEO
NORAD 62955·PAYLOAD·🇺🇸 United States

Launched Feb 11, 2025 from Vandenberg Space Force Base

Loading…

Next Passes (next 24 hours)

TLE

FreshSource: CelesTrak SupGP

Epoch: Sep 14, 2026, 14:15 UTC

1 62955C 25029H   26257.59423611 -.00030394  00000+0 -97718-3 0  2570
2 62955  53.1585  73.4227 0001237  96.3648 209.7958 15.31723540    12

Track STARLINK-32880 in real time with AllMySat

Download on the App Store